Location: Unspecified
(0.0000°N, 0.0000°E)
Time: 13:51:06
(UTC+00:00)

Explorer 11/Cluster Stage 4 - Pass Details

Date: 24 September 2019
Orbit: 467 x 1259 km, 28.8° (Epoch: 13 October)

Event Time Altitude Azimuth Distance (km) Brightness Sun altitude
Exits shadow 04:05:16 33° 83° (E) 789 7.1 -26.7°
Drops below altitude 10° 04:07:38 10° 106° (ESE) 1,631 9.2 -26.2°
Sets 04:09:55 0° 112° (ESE) 2,557 10.3 -25.6°
